Location: Dornbirn
(47.4124°N, 9.7438°E)
Time: 12:18:37
(UTC+02:00)

ISS - Visible Passes

Search period start: 30 September 2022 00:00
Search period end: 10 October 2022 00:00
Orbit: 414 x 417 km, 51.6° (Epoch: 30 September)

Date Brightness Start Highest point End Pass type
(mag) Time Alt. Az. Time Alt. Az. Time Alt. Az.
30 Sep -3.5 19:43:34 10° WNW 19:46:54 59° NNE 19:49:52 12° E visible
30 Sep -2.0 21:20:27 10° WNW 21:22:45 29° WSW 21:22:45 29° WSW visible
01 Oct -3.2 20:31:31 10° WNW 20:34:48 50° SSW 20:35:58 32° SSE visible
02 Oct -3.7 19:42:40 10° WNW 19:46:01 77° SSW 19:49:15 11° ESE visible
02 Oct -1.1 21:20:21 10° W 21:22:08 15° SW 21:22:08 15° SW visible
03 Oct -1.7 20:30:55 10° W 20:33:37 23° SW 20:35:29 15° S visible
04 Oct -2.3 19:41:47 10° WNW 19:44:53 35° SW 19:47:58 10° SSE visible
06 Oct -1.0 19:41:18 10° W 19:43:27 16° SW 19:45:35 10° S visible
